Location: Brownlee
(50.7397°N, 106.0159°W)
Time: 08:05:09
(UTC+00:00)

Envisat - Pass Details

Date: 04 December 2022
Orbit: 763 x 765 km, 98.2° (Epoch: 04 February)

Event Time Altitude Azimuth Distance (km) Brightness Sun altitude
Rises 00:00:25 0° 222° (SW) 3,222 7.6 -9.0°
Reaches altitude 10° 00:04:17 10° 252° (WSW) 2,304 7.1 -9.6°
Maximum altitude 00:06:17 12° 276° (W) 2,154 6.4 -9.9°
Drops below altitude 10° 00:08:18 10° 299° (WNW) 2,311 6.0 -10.2°
Sets 00:12:13 0° 329° (NNW) 3,245 6.4 -10.7°
